Tracking 35331 objects as of 14-Sep-2026
HD Live streaming from Space Station
objects crossing your sky now

SL-12 DEB


SL-12 DEB is no longer on orbit


NORAD ID: 29475
Int'l Code: 1989-039DV
Launch date: May 31, 1989
Source: Commonwealth of Independent States (former USSR) (CIS)
Launch site: TYURATAM MISSILE AND SPACE COMPLEX (TTMTR)
Decay date: 2007-07-09

Note: This is SATELLITE DEBRIS
Your satellite tracking list
Your tracking list is empty




NASA's NSSDC Master Catalog

Two Line Element Set (TLE):
1 29475U 89039DV  07002.66539755 +.00050907 +00000-0 +12535-0 0  9998
2 29475 066.3240 220.0118 5620589 056.9411 340.5933 04.39818592005950
Source of the keplerian elements: AFSPC